Clément Frecelle

Clément Frecelle

Statistiques 2017

  • Courses courues : 139
  • Nb de victoires : 17
  • Nb de places : 39
  • Écart gagnant : 2
  • Réussite à la gagne : 12%
  • Réussite à la place : 28%
Musique : 8m 3m 1m 4a 8m Da 5a Da 6a 8a 1m Dm 0a 5a 7a Da Da 6a
DateRangCatégorieAlloc.Dist.HippodromeChevalRed. KmSpé.
22/06/17 8 Trot 22 000€ 2 800m Chartres Under The Sun 1'16"3 Monté
22/06/17 3 Trot 22 000€ 2 800m Chartres Cow Boy des Obeaux 1'16"8 Monté
20/06/17 1 Trot 46 000€ 2 850m Vincennes Derby du Bourg 1'15"0 Monté lire

Vite aux premiers rangs, a gagné de toute une distance.

19/06/17 4 Trot 19 000€ 2 450m Caen Emeraude du Gite 1'17"2 Attelé
19/06/17 8 Trot 23 000€ 2 450m Caen Clevner 1'15"7 Monté
19/06/17 D Trot 21 000€ 2 200m Caen Callas de Marzy Attelé
18/06/17 5 Mixte 20 000€ 2 600m Saint Pierre La Cour Versaline Attelé
18/06/17 D Mixte 12 000€ 2 600m Saint Pierre La Cour Dauphine du Verger Attelé
18/06/17 6 Mixte 10 000€ 2 625m Saint Pierre La Cour Eliot Dairpet Attelé
16/06/17 8 Trot 19 000€ 2 875m Laval Elegante du Gite 1'19"6 Attelé
16/06/17 1 Trot 20 000€ 2 875m Laval Dynamite Jiel 1'16"7 Monté
16/06/17 D Trot 20 000€ 2 875m Laval D Day de Torvic Monté
16/06/17 0 Trot 20 000€ 2 875m Laval Cleone du Gite Attelé
16/06/17 5 Trot 25 000€ 2 875m Laval Artiste du Lys 1'14"9 Attelé
11/06/17 7 Mixte 13 000€ 2 525m Questembert Dandy de Betton Attelé
11/06/17 D Mixte 10 000€ 2 500m Questembert Elwena Visais Attelé
11/06/17 D Mixte 10 000€ 2 500m Questembert Echo des Neuf Clos Attelé
10/06/17 6 Trot 68 000€ 2 700m Vincennes El Nono 1'19"7 Attelé lire

N'a jamais eu l'ombre d'une chance.

10/06/17 5 Trot 70 000€ 2 700m Vincennes Derby du Bourg 1'14"3 Monté lire

Un des animateurs, a très nettement marqué le pas dans la phase finale.

09/06/17 1 Trot 39 000€ 2 850m Vincennes Evita du Bourg 1'18"0 Monté lire

Vite en deuxième position, est venue faire la différence dans les cent derniers mètres.

09/06/17 4 Trot 38 000€ 2 200m Vincennes Dark Turquet 1'14"9 Monté lire

Longtemps dans la dernière partie du peloton, a donné un très bon coup de reins pour finir.

05/06/17 5 Mixte 10 000€ 2 150m Durtal Eliot Dairpet 1'23"8 Attelé
05/06/17 8 Mixte 10 000€ 2 150m Durtal Ex Gratia 1'25"4 Attelé
04/06/17 D Trot 20 000€ 3 000m Chateaubriant Bigali du Flinois Attelé
04/06/17 3 Trot 13 000€ 2 400m Chateaubriant Coup Chanceux 1'16"4 Attelé
04/06/17 2 Trot 13 000€ 2 400m Chateaubriant Elma de Subligny 1'19"9 Monté
04/06/17 D Trot 11 000€ 2 400m Chateaubriant Estelle du Clos Attelé
03/06/17 7 Trot 20 000€ 2 800m Argentan Colibri des Pins 1'17"5 Attelé
03/06/17 D Trot 27 000€ 2 900m Argentan Antillaise de Mai Attelé
31/05/17 8 Trot 26 000€ 2 450m Caen Cleone du Gite 1'16"9 Attelé
31/05/17 0 Trot 38 000€ 2 475m Caen Vermeer Jarzeen Monté
31/05/17 6 Trot 26 000€ 2 450m Caen Coquine d'Azur 1'15"7 Monté
28/05/17 9 Trot 24 000€ 2 800m Chartres Vence de Betton 1'15"4 Attelé
27/05/17 D Trot 13 000€ 2 700m Graignes Dark Turquet Monté
26/05/17 1 Trot 36 000€ 2 850m Vincennes Derby du Bourg 1'14"7 Monté lire

Vite en bonne position, est venu faire nettement la différence dans la phase finale.

26/05/17 D Trot 23 000€ 2 800m Pontchateau Amie A la Bruyere Monté
25/05/17 7 Trot 23 000€ 3 000m Nantes Berion de Vandel 1'17"4 Monté
25/05/17 5 Trot 21 000€ 3 000m Nantes Comtesse de Javene 1'16"6 Attelé
25/05/17 D Trot 23 000€ 3 025m Nantes Desir du Gite Attelé
23/05/17 9 Trot 19 000€ 2 275m Nantes Baby Black d'Erah 1'16"4 Monté
19/05/17 9 Trot 21 000€ 3 150m Angers Colibri des Pins 1'17"0 Attelé
19/05/17 D Trot 20 000€ 2 350m Angers Dauphin du Mont Attelé
19/05/17 4 Trot 24 000€ 3 125m Angers Bonheur la Ravelle 1'16"3 Monté
18/05/17 7 Trot 23 000€ 2 825m Chartres Antillaise de Mai 1'17"0 Monté
14/05/17 D Trot 15 000€ 2 925m Challans Djoko Magique Monté
14/05/17 D Trot 14 000€ 2 375m Challans Etincelle Buch Attelé
13/05/17 D Trot 21 000€ 2 825m Le Croise Laroche Arobas Point Cosse Monté
13/05/17 D Trot 54 000€ 2 175m Vincennes Amiral du Poitou Monté lire

Très vite à la pointe du combat, a marqué le pas pour finir et a cafouillé dans ses allures.

12/05/17 D Trot 12 000€ 2 875m Laval Elegante Aimef Attelé
11/05/17 D Trot 20 000€ 2 875m Meslay Du Maine Clevner Monté
En poursuivant votre navigation sur ce site, vous acceptez nos CGU et l'utilisation de cookies afin de réaliser des statistiques d'audiences et vous proposer une navigation optimale, la possibilité de partager des contenus sur des réseaux sociaux ainsi que des services et offres adaptés à vos centres d'intérêts.
Pour en savoir plus et paramétrer les cookies...